Location: Alphen
(52.1351°N, 4.6549°E)
Time: 01:17:03
(UTC+00:00)

MOS 1 Rocket - Pass Details

Date: 27 January 2021
Orbit: 614 x 830 km, 97.4° (Epoch: 27 February)

Event Time Altitude Azimuth Distance (km) Brightness Sun altitude
Rises 04:13:33 0° 144° (SE) 3,133 7.0 -29.8°
Reaches altitude 10° 04:15:58 10° 138° (SE) 2,181 6.2 -29.4°
Maximum altitude 04:20:26 42° 68° (ENE) 972 4.4 -28.7°
Enters shadow 04:23:15 20° 7° (N) 1,553 5.2 -28.3°
